ヒル彗星

326P/Hill (2015)

English version
Home page
Updated on May 22, 2017

---------------------------------------------------------------------

・ プロフィール

符号 326P/2015 P1
検出日 2015年8月8日
検出光度 19.6等
検出者 Krisztian Sarneczky and Adam Sodor (Konkoly Observatory)

・ 写真集

・ 軌道要素

Epoch 2015 Oct. 25.0 TT = JDT 2457320.5
T 2015 Oct. 22.70981 TT                                 MPCW
q   2.7795854            (2000.0)            P               Q
n   0.11996400     Peri.  278.84336     +0.94654950     -0.31974996
a   4.0716342      Node    99.81296     +0.31029243     +0.86665890
e   0.3173293      Incl.    2.47045     +0.08810585     +0.38296516
P   8.22
From 180 observations 1990 Sept. 24-2017 Jan. 27, mean residual 0".6.
     Nongravitational parameters A1 = +5.39, A2 = -0.2961.

・ 光度変化

        m1 = 13.5 + 5 logΔ + 10.0 log r

---------------------------------------------------------------------

軌道要素はM.P.E.C. 2017-E59に掲載されたものです。
光度グラフはComet for Windowsで作成したものです。

---------------------------------------------------------------------

Copyright(C) Seiichi Yoshida (comet@aerith.net). All rights reserved.